^^
Refsnesbakken Borettslag Station Historical Data
 
Daily Summary for May 07, 2026 Units:  Metric    English   Both
Daily Weekly Monthly Yearly
  Current: High: Low: Average:
Temperature: 9.2 °C 9.2 °C 4.8 °C 6 °C
Dew Point: -0.2 °C -0.2 °C -2.7 °C -1.7 °C
Humidity: 51.8% 61.7% 49.8% 58%
Wind Speed: 7.4km/h 14.8km/h 7.4km/h 11.3km/h
Wind Gust: 8km/h 14.8km/h - -
WindNNW - - NNW
Pressure: 1020.2 hPa 1020.2 hPa 1016.0 hPa -
Precipitation: 0.0 mm      
 
 
Tabular Data for May 07, 2026
Time Temperature Dew Point Pressure Wind Wind Speed Wind Gust Humidity Rainfall Rate (Hourly) solar
00:09 7.2 °C -1.2 °C 1016.0 hPa North 9.3 km/h 11.3 km/h 55.2% 0.0 mm 0 W/m2
00:14 7.2 °C -1.1 °C 1016.0 hPa North 9.3 km/h 9.7 km/h 56% 0.0 mm 0 W/m2
00:19 7.2 °C -1.1 °C 1016.1 hPa North 9.3 km/h 9.7 km/h 55.8% 0.0 mm 0 W/m2
00:24 7.2 °C -1.4 °C 1016.1 hPa North 9.3 km/h 9.7 km/h 54.5% 0.0 mm 0 W/m2
00:29 7.2 °C -0.9 °C 1016.1 hPa North 9.3 km/h 9.7 km/h 56.7% 0.0 mm 0 W/m2
00:34 7.2 °C -0.6 °C 1016.3 hPa NNW 10.7 km/h 11.1 km/h 57.6% 0.0 mm 0 W/m2
00:39 7.1 °C -0.7 °C 1016.2 hPa NNW 11.1 km/h 11.3 km/h 57.9% 0.0 mm 0 W/m2
00:44 7 °C -0.7 °C 1016.3 hPa NNW 11.1 km/h 11.3 km/h 58% 0.0 mm 0 W/m2
00:49 6.9 °C -0.8 °C 1016.3 hPa NNW 11.1 km/h 11.3 km/h 58% 0.0 mm 0 W/m2
00:54 6.8 °C -0.9 °C 1016.2 hPa NNW 11.1 km/h 11.3 km/h 58.2% 0.0 mm 0 W/m2
00:59 6.8 °C -1.1 °C 1016.3 hPa NNW 11.1 km/h 11.3 km/h 57.5% 0.0 mm 0 W/m2
01:04 6.7 °C -1.4 °C 1016.4 hPa NNW 10.4 km/h 11.3 km/h 56.4% 0.0 mm 0 W/m2
01:09 6.7 °C -1.3 °C 1016.4 hPa NNW 9.3 km/h 11.3 km/h 56.9% 0.0 mm 0 W/m2
01:14 6.7 °C -1.3 °C 1016.5 hPa NNW 9.3 km/h 9.7 km/h 56.8% 0.0 mm 0 W/m2
01:19 6.6 °C -1.1 °C 1016.5 hPa NNW 9.3 km/h 9.7 km/h 57.8% 0.0 mm 0 W/m2
01:24 6.6 °C -1.2 °C 1016.5 hPa NNW 9.3 km/h 9.7 km/h 57.6% 0.0 mm 0 W/m2
01:29 6.5 °C -1 °C 1016.6 hPa NNW 9.3 km/h 9.7 km/h 58.7% 0.0 mm 0 W/m2
01:34 6.4 °C -1.2 °C 1016.5 hPa NNW 9.3 km/h 9.7 km/h 58.1% 0.0 mm 0 W/m2
01:39 6.4 °C -1.3 °C 1016.5 hPa NNW 9.3 km/h 9.7 km/h 57.8% 0.0 mm 0 W/m2
01:44 6.3 °C -1.1 °C 1016.6 hPa NNW 9.3 km/h 9.7 km/h 59.2% 0.0 mm 0 W/m2
01:49 6.3 °C -1.1 °C 1016.6 hPa NNW 9.3 km/h 9.7 km/h 59.3% 0.0 mm 0 W/m2
01:54 6.3 °C -1.2 °C 1016.6 hPa NNW 9.3 km/h 9.7 km/h 59% 0.0 mm 0 W/m2
01:59 6.3 °C -1.2 °C 1016.6 hPa NNW 9.3 km/h 9.7 km/h 59% 0.0 mm 0 W/m2
02:04 6.2 °C -0.9 °C 1016.7 hPa NNW 9.3 km/h 9.7 km/h 60.5% 0.0 mm 0 W/m2
02:09 6.1 °C -1.1 °C 1016.8 hPa NNW 9.3 km/h 9.7 km/h 59.6% 0.0 mm 0 W/m2
02:14 6.1 °C -0.9 °C 1016.8 hPa NNW 9.3 km/h 9.7 km/h 60.7% 0.0 mm 0 W/m2
02:19 6.1 °C -1 °C 1016.8 hPa NNW 9.3 km/h 9.7 km/h 60.2% 0.0 mm 0 W/m2
02:24 6.1 °C -0.9 °C 1016.8 hPa NNW 9.3 km/h 9.7 km/h 60.9% 0.0 mm 0 W/m2
02:29 6.1 °C -0.8 °C 1016.9 hPa NNW 9.3 km/h 9.7 km/h 61.3% 0.0 mm 0 W/m2
02:34 6.1 °C -0.7 °C 1016.9 hPa NNW 9.3 km/h 9.7 km/h 61.7% 0.0 mm 0 W/m2
02:39 6 °C -0.8 °C 1017.0 hPa NNW 9.3 km/h 9.7 km/h 61.5% 0.0 mm 0 W/m2
02:44 6 °C -0.9 °C 1017.0 hPa NNW 9.3 km/h 9.7 km/h 60.9% 0.0 mm 0 W/m2
02:49 6 °C -1 °C 1017.1 hPa NNW 9.3 km/h 9.7 km/h 60.7% 0.0 mm 0 W/m2
02:54 6 °C -1.1 °C 1017.1 hPa NNW 9.3 km/h 9.7 km/h 60.4% 0.0 mm 0 W/m2
02:59 6 °C -1.1 °C 1017.2 hPa NNW 9.3 km/h 9.7 km/h 60.5% 0.0 mm 0 W/m2
03:04 5.9 °C -1 °C 1017.1 hPa NNW 10.7 km/h 11.1 km/h 60.9% 0.0 mm 0 W/m2
03:09 5.9 °C -1.1 °C 1017.2 hPa NNW 11.1 km/h 11.3 km/h 60.8% 0.0 mm 0 W/m2
03:14 5.8 °C -1.4 °C 1017.2 hPa NNW 11.1 km/h 11.3 km/h 59.9% 0.0 mm 0 W/m2
03:19 5.8 °C -1.3 °C 1017.2 hPa NNW 11.1 km/h 11.3 km/h 60.4% 0.0 mm 0 W/m2
03:24 5.6 °C -1.3 °C 1017.3 hPa NNW 11.1 km/h 11.3 km/h 61% 0.0 mm 0 W/m2
03:29 5.4 °C -1.6 °C 1017.3 hPa NNW 11.1 km/h 11.3 km/h 60.7% 0.0 mm 0 W/m2
03:34 5.4 °C -2 °C 1017.4 hPa NNW 11.1 km/h 11.3 km/h 59.2% 0.0 mm 0 W/m2
03:39 5.4 °C -2 °C 1017.4 hPa North 11.1 km/h 11.3 km/h 58.9% 0.0 mm 0 W/m2
03:44 5.5 °C -2.5 °C 1017.4 hPa North 11.1 km/h 11.3 km/h 56.5% 0.0 mm 0 W/m2
03:49 5.5 °C -2.6 °C 1017.4 hPa North 11.1 km/h 11.3 km/h 56.1% 0.0 mm 0 W/m2
03:54 5.5 °C -2.3 °C 1017.6 hPa North 11.1 km/h 11.3 km/h 57% 0.0 mm 0 W/m2
03:59 5.5 °C -2.3 °C 1017.6 hPa North 11.1 km/h 11.3 km/h 57% 0.0 mm 0 W/m2
04:04 5.5 °C -2.5 °C 1017.6 hPa NNW 12.6 km/h 13 km/h 56.4% 0.0 mm 0 W/m2
04:09 5.4 °C -2.7 °C 1017.6 hPa NNW 13 km/h 13 km/h 56% 0.0 mm 0 W/m2
04:14 5.5 °C -2.5 °C 1017.8 hPa NNW 13 km/h 13 km/h 56.3% 0.0 mm 0 W/m2
04:19 5.6 °C -2 °C 1017.7 hPa NNW 13 km/h 13 km/h 58.1% 0.0 mm 0 W/m2
04:24 5.5 °C -2.2 °C 1017.6 hPa NNW 13 km/h 13 km/h 57.3% 0.0 mm 0 W/m2
04:29 5.5 °C -2.1 °C 1017.7 hPa NNW 13 km/h 13 km/h 58.1% 0.0 mm 0 W/m2
04:34 5.4 °C -1.9 °C 1017.7 hPa NNW 13 km/h 13 km/h 59.4% 0.0 mm 0 W/m2
04:39 5.3 °C -2.1 °C 1017.8 hPa NNW 13 km/h 13 km/h 59.2% 0.0 mm 0 W/m2
04:44 5.2 °C -2.2 °C 1017.8 hPa NNW 13 km/h 13 km/h 59% 0.0 mm 0 W/m2
04:49 5.3 °C -2.1 °C 1017.8 hPa NNW 13 km/h 13 km/h 59% 0.0 mm 0 W/m2
04:54 5.3 °C -2.3 °C 1017.8 hPa NNW 13 km/h 13 km/h 58% 0.0 mm 0 W/m2
04:59 5.3 °C -2.4 °C 1017.8 hPa NNW 13 km/h 13 km/h 57.5% 0.0 mm 0 W/m2
05:04 5.3 °C -2.4 °C 1017.8 hPa NNW 12.3 km/h 13 km/h 57.7% 0.0 mm 0 W/m2
05:09 5.3 °C -2.6 °C 1017.9 hPa North 11.1 km/h 12.9 km/h 56.7% 0.0 mm 0 W/m2
05:14 5.3 °C -2 °C 1017.9 hPa North 11.1 km/h 11.3 km/h 59.1% 0.0 mm 5 W/m2
05:19 5.3 °C -2 °C 1017.9 hPa North 11.1 km/h 11.3 km/h 59.3% 0.0 mm 5 W/m2
05:24 5.2 °C -2.2 °C 1017.9 hPa North 11.1 km/h 11.3 km/h 58.8% 0.0 mm 7 W/m2
05:29 5.2 °C -2 °C 1018.0 hPa North 11.1 km/h 11.3 km/h 59.8% 0.0 mm 9 W/m2
05:34 5.2 °C -2.1 °C 1018.0 hPa North 9.6 km/h 11.3 km/h 59.7% 0.0 mm 9 W/m2
05:39 5.2 °C -2 °C 1018.0 hPa North 7.4 km/h 11.3 km/h 59.8% 0.0 mm 11 W/m2
05:44 5.1 °C -2.2 °C 1018.0 hPa North 7.4 km/h 8 km/h 59.1% 0.0 mm 11 W/m2
05:49 5.1 °C -2.3 °C 1018.0 hPa North 7.4 km/h 8 km/h 59.1% 0.0 mm 11 W/m2
05:54 5 °C -2.2 °C 1018.1 hPa North 7.4 km/h 8 km/h 59.5% 0.0 mm 12 W/m2
05:59 5 °C -2.1 °C 1018.2 hPa North 7.4 km/h 8 km/h 60% 0.0 mm 12 W/m2
06:04 5 °C -2.2 °C 1018.2 hPa North 7.4 km/h 8 km/h 59.5% 0.0 mm 14 W/m2
06:09 5 °C -2.1 °C 1018.3 hPa North 7.4 km/h 8 km/h 60.2% 0.0 mm 14 W/m2
06:14 5 °C -2.1 °C 1018.4 hPa North 7.4 km/h 8 km/h 59.9% 0.0 mm 16 W/m2
06:19 5 °C -1.9 °C 1018.4 hPa North 7.4 km/h 8 km/h 61% 0.0 mm 16 W/m2
06:24 4.9 °C -2.3 °C 1018.4 hPa North 7.4 km/h 8 km/h 59.8% 0.0 mm 16 W/m2
06:29 4.8 °C -2.4 °C 1018.5 hPa North 7.4 km/h 8 km/h 59.6% 0.0 mm 16 W/m2
06:34 4.8 °C -2.4 °C 1018.5 hPa North 10.3 km/h 11.1 km/h 59.5% 0.0 mm 18 W/m2
06:39 4.9 °C -2.4 °C 1018.6 hPa North 11.1 km/h 11.3 km/h 59.3% 0.0 mm 18 W/m2
06:44 4.9 °C -2.4 °C 1018.6 hPa North 11.1 km/h 11.3 km/h 59.2% 0.0 mm 18 W/m2
06:49 4.9 °C -2.3 °C 1018.6 hPa North 11.1 km/h 11.3 km/h 59.8% 0.0 mm 19 W/m2
06:54 4.9 °C -2.3 °C 1018.6 hPa North 11.1 km/h 11.3 km/h 59.7% 0.0 mm 19 W/m2
06:59 4.9 °C -2.2 °C 1018.7 hPa North 11.1 km/h 11.3 km/h 60% 0.0 mm 19 W/m2
07:04 4.9 °C -2.2 °C 1018.8 hPa North 14 km/h 14.8 km/h 60% 0.0 mm 19 W/m2
07:09 4.8 °C -2 °C 1018.8 hPa North 14.8 km/h 14.8 km/h 61% 0.0 mm 19 W/m2
07:14 4.8 °C -1.9 °C 1018.9 hPa North 14.8 km/h 14.8 km/h 61.5% 0.0 mm 19 W/m2
07:19 4.8 °C -2 °C 1018.9 hPa North 14.8 km/h 14.8 km/h 61.3% 0.0 mm 21 W/m2
07:24 4.8 °C -1.9 °C 1018.9 hPa North 14.8 km/h 14.8 km/h 61.6% 0.0 mm 21 W/m2
07:29 4.8 °C -2 °C 1018.9 hPa North 14.8 km/h 14.8 km/h 61% 0.0 mm 23 W/m2
07:34 4.9 °C -1.9 °C 1018.9 hPa North 14.1 km/h 14.8 km/h 61.5% 0.0 mm 23 W/m2
07:39 4.9 °C -2 °C 1018.9 hPa North 13 km/h 14.5 km/h 60.7% 0.0 mm 28 W/m2
07:44 5 °C -1.9 °C 1019.0 hPa North 13 km/h 13 km/h 60.8% 0.0 mm 25 W/m2
07:49 5.1 °C -1.7 °C 1019.0 hPa North 13 km/h 13 km/h 61.5% 0.0 mm 25 W/m2
07:54 5.1 °C -1.8 °C 1019.0 hPa North 13 km/h 13 km/h 60.9% 0.0 mm 26 W/m2
07:59 5.1 °C -1.8 °C 1019.1 hPa North 13 km/h 13 km/h 60.6% 0.0 mm 25 W/m2
08:04 5.2 °C -1.8 °C 1019.1 hPa North 13 km/h 13 km/h 60.8% 0.0 mm 25 W/m2
08:09 5.2 °C -2 °C 1019.2 hPa North 13 km/h 13 km/h 60% 0.0 mm 25 W/m2
08:14 5.2 °C -1.9 °C 1019.1 hPa North 13 km/h 13 km/h 60% 0.0 mm 26 W/m2
08:19 5.3 °C -1.8 °C 1019.1 hPa North 13 km/h 13 km/h 60.1% 0.0 mm 26 W/m2
08:24 5.4 °C -1.8 °C 1019.2 hPa North 13 km/h 13 km/h 59.8% 0.0 mm 26 W/m2
08:29 5.4 °C -1.7 °C 1019.3 hPa North 13 km/h 13 km/h 60% 0.0 mm 28 W/m2
08:34 5.6 °C -1.7 °C 1019.3 hPa NNW 14.4 km/h 14.8 km/h 59.7% 0.0 mm 28 W/m2
08:39 5.7 °C -1.6 °C 1019.3 hPa NNW 14.8 km/h 14.8 km/h 59.4% 0.0 mm 32 W/m2
08:44 5.8 °C -1.4 °C 1019.4 hPa NNW 14.8 km/h 14.8 km/h 60% 0.0 mm 32 W/m2
08:49 5.9 °C -1.3 °C 1019.4 hPa NNW 14.8 km/h 14.8 km/h 59.8% 0.0 mm 30 W/m2
08:54 5.9 °C -1.6 °C 1019.5 hPa NNW 14.8 km/h 14.8 km/h 58.5% 0.0 mm 30 W/m2
08:59 6 °C -1.9 °C 1019.5 hPa NNW 14.8 km/h 14.8 km/h 57% 0.0 mm 30 W/m2
09:04 6.1 °C -1.7 °C 1019.5 hPa NNW 14.8 km/h 14.8 km/h 57.5% 0.0 mm 30 W/m2
09:09 6.2 °C -2 °C 1019.5 hPa North 14.8 km/h 14.8 km/h 55.9% 0.0 mm 32 W/m2
09:14 6.3 °C -1.9 °C 1019.5 hPa North 14.8 km/h 14.8 km/h 56% 0.0 mm 32 W/m2
09:19 6.4 °C -2 °C 1019.6 hPa North 14.8 km/h 14.8 km/h 55.1% 0.0 mm 32 W/m2
09:24 6.5 °C -2.1 °C 1019.6 hPa North 14.8 km/h 14.8 km/h 54.3% 0.0 mm 35 W/m2
09:29 6.6 °C -2 °C 1019.6 hPa North 14.8 km/h 14.8 km/h 54% 0.0 mm 39 W/m2
09:34 6.7 °C -2.3 °C 1019.7 hPa NNE 14.8 km/h 14.8 km/h 52.8% 0.0 mm 504 W/m2
09:39 6.9 °C -2.2 °C 1019.7 hPa NNE 14.8 km/h 14.8 km/h 52.3% 0.0 mm 515 W/m2
09:44 7.1 °C -2.1 °C 1019.7 hPa NNE 14.8 km/h 14.8 km/h 52.1% 0.0 mm 524 W/m2
09:49 7.4 °C -1.8 °C 1019.8 hPa NNE 14.8 km/h 14.8 km/h 51.8% 0.0 mm 533 W/m2
09:54 7.7 °C -1.7 °C 1020.0 hPa NNE 14.8 km/h 14.8 km/h 51.3% 0.0 mm 547 W/m2
09:59 7.9 °C -1.8 °C 1019.9 hPa NNE 14.8 km/h 14.8 km/h 50.1% 0.0 mm 564 W/m2
10:04 8.1 °C -1.8 °C 1019.9 hPa North 12.6 km/h 14.8 km/h 49.9% 0.0 mm 563 W/m2
10:09 8.2 °C -1.3 °C 1020.0 hPa NNW 9.3 km/h 14.5 km/h 51% 0.0 mm 573 W/m2
10:14 8.4 °C -1.3 °C 1019.9 hPa NNW 9.3 km/h 9.7 km/h 50.6% 0.0 mm 582 W/m2
10:19 8.5 °C -1.4 °C 1020.0 hPa NNW 9.3 km/h 9.7 km/h 49.8% 0.0 mm 592 W/m2
10:24 8.6 °C -1.3 °C 1020.0 hPa NNW 9.3 km/h 9.7 km/h 49.9% 0.0 mm 606 W/m2
10:29 8.7 °C -0.8 °C 1020.1 hPa NNW 9.3 km/h 9.7 km/h 51% 0.0 mm 608 W/m2
10:34 9 °C -0.6 °C 1020.2 hPa NNW 8.6 km/h 9.7 km/h 51% 0.0 mm 617 W/m2
10:39 9.1 °C -0.3 °C 1020.2 hPa NNW 7.4 km/h 9.7 km/h 51.6% 0.0 mm 622 W/m2
10:44 9.2 °C -0.2 °C 1020.2 hPa NNW 7.4 km/h 8 km/h 51.8% 0.0 mm 631 W/m2
Refsnesbakken, Moss, Norway
Compliments of Weather Underground - 2 mb